When you browse on this site, cookies collect data to enhance your experience and personalize the content and advertising you see.
Visit our Privacy Policy to learn more. By continuing to use the site, you agree to this use of cookies and data.

Tiempo cada hora Shkoder

Hoy, 11 Julio, Sábado

Tiempo Temperatura Precipitaciones Viento Presión Humedad
00:00 +24°C° 0 mm 1 mps 739 mmHg 62%
01:00 +23°C° 0 mm 1 mps 739 mmHg 62%
02:00 +23°C° 0 mm 1 mps 739 mmHg 63%
03:00 +23°C° 0 mm 1 mps 739 mmHg 63%
04:00 +23°C° 0 mm 1 mps 739 mmHg 64%
05:00 +24°C° 0 mm 1 mps 739 mmHg 61%
06:00 +26°C° 0 mm 1 mps 739 mmHg 58%
07:00 +26°C° 0 mm 0 mps 739 mmHg 55%
08:00 +29°C° 0 mm 1 mps 739 mmHg 52%
09:00 +30°C° 0 mm 1 mps 739 mmHg 48%
10:00 +32°C° 0 mm 1 mps 739 mmHg 44%
11:00 +32°C° 0.1 mm 2 mps 739 mmHg 43%
12:00 +34°C° 0.1 mm 2 mps 739 mmHg 42%
13:00 +34°C° 0.1 mm 3 mps 739 mmHg 41%
14:00 +34°C° 0.2 mm 3 mps 738 mmHg 42%
15:00 +32°C° 0.2 mm 2 mps 738 mmHg 43%
16:00 +32°C° 0.2 mm 2 mps 738 mmHg 44%
17:00 +30°C° 0.1 mm 2 mps 738 mmHg 49%
18:00 +28°C° 0.1 mm 1 mps 738 mmHg 54%
19:00 +26°C° 0.1 mm 1 mps 738 mmHg 59%
20:00 +26°C° 0 mm 1 mps 738 mmHg 61%
21:00 +25°C° 0 mm 1 mps 738 mmHg 63%
22:00 +24°C° 0 mm 1 mps 739 mmHg 65%
23:00 +24°C° 0 mm 1 mps 739 mmHg 65%

Mañana, 12 Julio, Domingo

Tiempo Temperatura Precipitaciones Viento Presión Humedad
00:00 +23°C° 0 mm 1 mps 739 mmHg 65%
01:00 +23°C° 0 mm 1 mps 739 mmHg 65%
02:00 +23°C° 0 mm 1 mps 739 mmHg 66%
03:00 +23°C° 0 mm 1 mps 739 mmHg 67%
04:00 +21°C° 0 mm 2 mps 739 mmHg 69%
05:00 +24°C° 0 mm 2 mps 739 mmHg 67%
06:00 +25°C° 0 mm 2 mps 740 mmHg 66%
07:00 +26°C° 0 mm 2 mps 740 mmHg 65%
08:00 +28°C° 0 mm 2 mps 740 mmHg 62%
09:00 +29°C° 0 mm 3 mps 740 mmHg 58%
10:00 +30°C° 0 mm 3 mps 740 mmHg 55%
11:00 +30°C° 0.2 mm 3 mps 740 mmHg 54%
12:00 +31°C° 0.2 mm 3 mps 740 mmHg 53%
13:00 +31°C° 0.2 mm 3 mps 740 mmHg 51%
14:00 +31°C° 0.3 mm 3 mps 740 mmHg 53%
15:00 +30°C° 0.3 mm 3 mps 740 mmHg 54%
16:00 +30°C° 0.3 mm 3 mps 740 mmHg 55%
17:00 +28°C° 0 mm 3 mps 740 mmHg 59%
18:00 +26°C° 0 mm 3 mps 740 mmHg 63%
19:00 +25°C° 0 mm 4 mps 740 mmHg 66%
20:00 +23°C° 0 mm 4 mps 741 mmHg 68%
21:00 +21°C° 0 mm 4 mps 741 mmHg 69%
22:00 +20°C° 0 mm 4 mps 741 mmHg 71%
23:00 +20°C° 0 mm 4 mps 741 mmHg 72%

Pasado mañana, 13 Julio, Lunes

Tiempo Temperatura Precipitaciones Viento Presión Humedad
00:00 +19°C° 0 mm 4 mps 741 mmHg 73%
01:00 +18°C° 0 mm 4 mps 741 mmHg 74%
02:00 +18°C° 0 mm 4 mps 741 mmHg 74%
03:00 +17°C° 0 mm 4 mps 741 mmHg 74%
04:00 +17°C° 0 mm 4 mps 741 mmHg 75%
05:00 +18°C° 0 mm 4 mps 741 mmHg 70%
06:00 +19°C° 0 mm 4 mps 741 mmHg 64%
07:00 +20°C° 0 mm 5 mps 741 mmHg 59%
08:00 +21°C° 0 mm 4 mps 741 mmHg 53%
09:00 +23°C° 0 mm 4 mps 741 mmHg 47%
10:00 +25°C° 0 mm 4 mps 741 mmHg 40%
11:00 +26°C° 0 mm 4 mps 740 mmHg 39%
12:00 +27°C° 0 mm 4 mps 740 mmHg 37%
13:00 +28°C° 0 mm 4 mps 740 mmHg 35%
14:00 +28°C° 0 mm 4 mps 740 mmHg 36%
15:00 +28°C° 0 mm 4 mps 739 mmHg 37%
16:00 +28°C° 0 mm 4 mps 739 mmHg 38%
17:00 +26°C° 0 mm 4 mps 739 mmHg 44%
18:00 +23°C° 0 mm 4 mps 739 mmHg 49%
19:00 +22°C° 0 mm 4 mps 739 mmHg 55%
20:00 +21°C° 0 mm 4 mps 739 mmHg 56%
21:00 +19°C° 0 mm 4 mps 739 mmHg 57%
22:00 +18°C° 0 mm 4 mps 739 mmHg 58%
23:00 +18°C° 0 mm 4 mps 739 mmHg 61%

14 Julio, Martes

Tiempo Temperatura Precipitaciones Viento Presión Humedad
00:00 +17°C° 0 mm 4 mps 739 mmHg 63%
01:00 +17°C° 0 mm 4 mps 739 mmHg 66%
02:00 +15°C° 0 mm 4 mps 739 mmHg 67%
03:00 +15°C° 0 mm 4 mps 739 mmHg 68%
04:00 +16°C° 0 mm 3 mps 739 mmHg 69%
05:00 +17°C° 0 mm 3 mps 739 mmHg 65%
06:00 +19°C° 0 mm 3 mps 739 mmHg 61%
07:00 +20°C° 0 mm 3 mps 739 mmHg 57%
08:00 +22°C° 0 mm 3 mps 739 mmHg 53%
09:00 +25°C° 0 mm 2 mps 739 mmHg 48%
10:00 +26°C° 0 mm 2 mps 739 mmHg 44%
11:00 +28°C° 0 mm 2 mps 739 mmHg 42%
12:00 +29°C° 0 mm 2 mps 739 mmHg 40%
13:00 +30°C° 0 mm 2 mps 739 mmHg 39%
14:00 +30°C° 0 mm 2 mps 738 mmHg 38%
15:00 +30°C° 0 mm 2 mps 738 mmHg 38%
16:00 +30°C° 0 mm 2 mps 738 mmHg 38%
17:00 +28°C° 0 mm 2 mps 738 mmHg 44%
18:00 +26°C° 0 mm 1 mps 738 mmHg 51%
19:00 +24°C° 0 mm 1 mps 738 mmHg 57%
20:00 +23°C° 0 mm 1 mps 738 mmHg 59%
21:00 +22°C° 0 mm 1 mps 739 mmHg 62%
22:00 +21°C° 0 mm 1 mps 739 mmHg 64%
23:00 +21°C° 0 mm 1 mps 739 mmHg 66%

15 Julio, Miércoles

Tiempo Temperatura Precipitaciones Viento Presión Humedad
00:00 +20°C° 0 mm 1 mps 739 mmHg 67%
01:00 +20°C° 0 mm 1 mps 739 mmHg 68%
02:00 +20°C° 0 mm 1 mps 739 mmHg 69%
03:00 +19°C° 0 mm 1 mps 739 mmHg 70%
04:00 +19°C° 0 mm 1 mps 739 mmHg 71%
05:00 +21°C° 0 mm 1 mps 739 mmHg 67%
06:00 +23°C° 0 mm 1 mps 739 mmHg 62%
07:00 +25°C° 0 mm 1 mps 739 mmHg 57%
08:00 +26°C° 0 mm 1 mps 739 mmHg 50%
09:00 +28°C° 0 mm 1 mps 739 mmHg 42%
10:00 +29°C° 0 mm 2 mps 739 mmHg 35%
11:00 +30°C° 0 mm 2 mps 739 mmHg 34%
12:00 +30°C° 0 mm 3 mps 739 mmHg 33%
13:00 +31°C° 0 mm 3 mps 739 mmHg 32%
14:00 +30°C° 0 mm 3 mps 739 mmHg 34%
15:00 +30°C° 0 mm 3 mps 739 mmHg 36%
16:00 +29°C° 0 mm 3 mps 739 mmHg 39%
17:00 +27°C° 0 mm 2 mps 739 mmHg 45%
18:00 +25°C° 0 mm 2 mps 739 mmHg 52%
19:00 +23°C° 0 mm 1 mps 739 mmHg 58%
20:00 +22°C° 0 mm 1 mps 739 mmHg 59%
21:00 +21°C° 0 mm 1 mps 739 mmHg 60%
22:00 +21°C° 0 mm 1 mps 740 mmHg 61%
23:00 +20°C° 0 mm 1 mps 740 mmHg 60%

16 Julio, Jueves

Tiempo Temperatura Precipitaciones Viento Presión Humedad
00:00 +20°C° 0 mm 1 mps 740 mmHg 59%
01:00 +20°C° 0 mm 1 mps 740 mmHg 59%
02:00 +20°C° 0 mm 1 mps 740 mmHg 59%
03:00 +19°C° 0 mm 1 mps 739 mmHg 59%
04:00 +19°C° 0 mm 1 mps 739 mmHg 59%
05:00 +21°C° 0 mm 1 mps 739 mmHg 56%
06:00 +23°C° 0 mm 1 mps 740 mmHg 52%
07:00 +25°C° 0 mm 1 mps 740 mmHg 49%
08:00 +27°C° 0 mm 1 mps 740 mmHg 46%
09:00 +29°C° 0 mm 1 mps 740 mmHg 43%
10:00 +30°C° 0 mm 1 mps 740 mmHg 40%
11:00 +31°C° 0 mm 1 mps 740 mmHg 38%
12:00 +31°C° 0 mm 2 mps 739 mmHg 37%
13:00 +32°C° 0 mm 2 mps 739 mmHg 36%
14:00 +32°C° 0 mm 2 mps 739 mmHg 38%
15:00 +31°C° 0 mm 2 mps 739 mmHg 39%
16:00 +31°C° 0 mm 2 mps 739 mmHg 41%
17:00 +29°C° 0 mm 2 mps 739 mmHg 47%
18:00 +27°C° 0 mm 2 mps 738 mmHg 52%
19:00 +26°C° 0 mm 1 mps 738 mmHg 58%
20:00 +25°C° 0 mm 1 mps 739 mmHg 61%
21:00 +24°C° 0 mm 2 mps 739 mmHg 64%
22:00 +23°C° 0 mm 2 mps 739 mmHg 67%
23:00 +23°C° 0 mm 2 mps 739 mmHg 67%
Mostrar más